This is the latest recevied weather packets stored in our database for station/object WA4IKQ. If no packets are shown the sender has not sent any weather packets the latest 10 day(s).
| Time | Temp. | Humidity | Pressure | Rain* | Wind** | Luminosity | Snow |
|---|---|---|---|---|---|---|---|
| 1777557762 | 25° C | 75% | 1012 hPa | 0 mm | 0.45 m/s, 176° | - | - |
| 1777557032 | 24.44° C | 77% | 1012.2 hPa | 0 mm | 2.24 m/s, 201° | - | - |
| 1777556994 | 24.44° C | 77% | 1012.2 hPa | 0 mm | 2.24 m/s, 201° | - | - |
| 1777556860 | 24.44° C | 77% | 1012.2 hPa | 0 mm | 2.24 m/s, 201° | - | - |
| 1777556137 | 24.44° C | 79% | 1012.2 hPa | 0 mm | 0.89 m/s, 214° | - | - |
| 1777555958 | 24.44° C | 79% | 1012.2 hPa | 0 mm | 0.89 m/s, 214° | - | - |
| 1777555360 | 24.44° C | 80% | 1012.2 hPa | 0 mm | 1.79 m/s, 243° | - | - |
| 1777555221 | 24.44° C | 80% | 1012.3 hPa | 0 mm | 1.79 m/s, 197° | - | - |
| 1777554287 | 24.44° C | 80% | 1012.3 hPa | 0 mm | 1.34 m/s, 212° | - | - |
| 1777554157 | 24.44° C | 80% | 1012.3 hPa | 0 mm | 1.34 m/s, 212° | - | - |
| 1777553730 | 23.89° C | 83% | 1012.4 hPa | 0 mm | 1.79 m/s, 197° | - | - |
| 1777553557 | 23.89° C | 83% | 1012.4 hPa | 0 mm | 1.79 m/s, 197° | - | - |
| 1777552552 | 23.33° C | 84% | 1012.4 hPa | 0 mm | 2.68 m/s, 214° | - | - |
| 1777552355 | 23.33° C | 84% | 1012.4 hPa | 0 mm | 2.68 m/s, 214° | - | - |
| 1777551625 | 23.33° C | 85% | 1012.3 hPa | 0 mm | 0.89 m/s, 205° | - | - |
| 1777551456 | 23.33° C | 85% | 1012.3 hPa | 0 mm | 0.89 m/s, 205° | - | - |
| 1777551335 | 23.33° C | 85% | 1012.2 hPa | 0 mm | 1.34 m/s, 208° | - | - |
| 1777551157 | 23.33° C | 85% | 1012.2 hPa | 0 mm | 1.34 m/s, 208° | - | - |
| 1777551023 | 23.33° C | 86% | 1012 hPa | 0 mm | 0.45 m/s, 207° | - | - |
| 1777550860 | 23.33° C | 86% | 1012 hPa | 0 mm | 0.45 m/s, 207° | - | - |
| 1777550187 | 22.78° C | 86% | 1011.9 hPa | 0 mm | 0.89 m/s, 229° | - | - |
| 1777549955 | 22.78° C | 86% | 1011.9 hPa | 0 mm | 0.89 m/s, 229° | - | - |
| 1777549816 | 22.78° C | 86% | 1011.9 hPa | 0 mm | 0.89 m/s, 226° | - | - |
| 1777549655 | 22.78° C | 86% | 1011.9 hPa | 0 mm | 0.89 m/s, 226° | - | - |
| 1777548896 | 22.78° C | 87% | 1011.8 hPa | 0 mm | 1.79 m/s, 218° | - | - |
* Rain latest hour (hover to see other rain measurements)
** Current wind speed in m/s (hover to see current wind gust speed)